FLOCK 4S-8 (47474 NORAD) Tracking and Keplerian Element Data

This shows tracking and keplerian element data for the satellite.

Feedback or suggestion? Click here.




ElementValue
Catalog47474
NameFLOCK 4S-8
Epoch Orbit1168
Epoch Day99.92666173
Epoch Year2021
RAAN162.2224
Inclination97.494
Eccentricity0.0008422
Argument of Perigee3.8665
Mean Anonmoly356.2629
Mean Motion15.11872338
Decay Rate2.314E-05
L11 47474U 21006BP 21099.92666173 .00002314 00000-0 13894-3 0 9994
L22 47474 97.4940 162.2224 0008422 3.8665 356.2629 15.11872338 11682

Live tracking and technical data element details for FLOCK 4S-8 (NORAD 47474). FLOCK 4S-8 can be tracked NOW for your location showing map with azimuth and elevation plus other details from your city location.

Track the satellite on the map from your city or location and see movement details for azimuth, elevation, latitude, longitude, range, height, and movement on the map or in text.







IsCatalogInMostPopularTable: catalog: 47474, numindb: 14
Update: records affected: 1



GetName: 47474 FLOCK 4S-8

Hit Count: updated at: Sat, 10 Apr 2021 18:43:34 GMT